TimeEST,TemperatureF,Dew PointF,Humidity,Sea Level PressureIn,VisibilityMPH,Wind Direction,Wind SpeedMPH,Gust SpeedMPH,PrecipitationIn,Events,Conditions,WindDirDegrees,DateUTC
12:56 AM,39.0,35.1,86,30.04,10.0,Calm,Calm,-,N/A,,Overcast,0,2012-12-29 05:56:00
1:56 AM,39.0,36.0,89,30.01,9.0,Calm,Calm,-,N/A,,Overcast,0,2012-12-29 06:56:00
2:56 AM,41.0,35.1,79,30.00,10.0,Calm,Calm,-,N/A,,Overcast,0,2012-12-29 07:56:00
3:24 AM,41.0,35.6,81,29.98,10.0,Calm,Calm,-,0.00,Rain,Light Rain,0,2012-12-29 08:24:00
3:56 AM,41.0,37.0,86,29.95,10.0,NE,3.5,-,0.00,,Overcast,40,2012-12-29 08:56:00
4:56 AM,42.1,39.0,89,29.94,10.0,Calm,Calm,-,N/A,,Overcast,0,2012-12-29 09:56:00
5:08 AM,42.8,39.2,87,29.92,9.0,Calm,Calm,-,0.00,Rain,Light Rain,0,2012-12-29 10:08:00
5:56 AM,44.1,39.0,82,29.89,10.0,East,4.6,-,0.02,Rain,Light Rain,90,2012-12-29 10:56:00
6:15 AM,42.8,39.2,87,29.87,10.0,East,4.6,-,0.02,Rain,Light Rain,90,2012-12-29 11:15:00
6:38 AM,42.8,39.2,87,29.86,10.0,East,6.9,-,0.04,Rain,Light Rain,100,2012-12-29 11:38:00
6:56 AM,44.1,39.9,85,29.86,9.0,ESE,6.9,-,0.05,Rain,Light Rain,110,2012-12-29 11:56:00
7:14 AM,44.6,41.0,87,29.83,7.0,ESE,9.2,-,0.03,Rain,Light Rain,110,2012-12-29 12:14:00
7:29 AM,-9999,-9999,N/A,-9999,-9999.0,North,-9999.0,-,N/A,,Unknown,0,2012-12-29 12:29:00
7:44 AM,44.6,42.8,93,29.77,5.0,ESE,11.5,-,0.07,Rain,Light Rain,110,2012-12-29 12:44:00
7:56 AM,45.0,42.1,90,29.77,8.0,East,10.4,-,0.08,Rain,Light Rain,100,2012-12-29 12:56:00
8:56 AM,46.9,44.1,90,29.68,4.0,SE,24.2,28.8,0.07,Rain,Rain,140,2012-12-29 13:56:00
9:56 AM,48.0,46.9,96,29.67,6.0,SE,5.8,-,0.07,Rain,Light Rain,140,2012-12-29 14:56:00
10:00 AM,-9999,-9999,N/A,-9999,-9999.0,North,-9999.0,-,N/A,,Unknown,0,2012-12-29 15:00:00
10:17 AM,48.2,46.4,93,29.65,2.5,Calm,Calm,-,0.03,Rain,Light Rain,0,2012-12-29 15:17:00
10:56 AM,48.9,46.9,93,29.62,3.0,NW,5.8,-,0.05,Rain,Light Rain,320,2012-12-29 15:56:00
11:56 AM,48.0,46.0,93,29.60,2.0,WNW,11.5,23.0,0.09,Rain,Rain,300,2012-12-29 16:56:00
12:44 PM,44.6,42.8,93,29.59,2.0,NW,21.9,27.6,0.04,Rain,Light Rain,320,2012-12-29 17:44:00
12:56 PM,45.0,43.0,93,29.58,2.0,NW,11.5,-,0.05,Rain,Light Rain,310,2012-12-29 17:56:00
1:23 PM,46.4,44.6,93,29.55,5.0,NW,11.5,-,0.00,,Overcast,310,2012-12-29 18:23:00
1:56 PM,46.9,45.0,93,29.55,10.0,NW,16.1,-,0.00,,Overcast,310,2012-12-29 18:56:00
2:35 PM,48.2,44.6,87,29.54,10.0,NW,8.1,18.4,N/A,,Overcast,310,2012-12-29 19:35:00
2:56 PM,46.9,43.0,86,29.55,10.0,WNW,16.1,24.2,N/A,,Mostly Cloudy,290,2012-12-29 19:56:00
3:12 PM,46.4,41.0,81,29.56,10.0,WNW,12.7,25.3,N/A,,Mostly Cloudy,290,2012-12-29 20:12:00
3:32 PM,44.6,41.0,87,29.56,10.0,WNW,17.3,26.5,N/A,,Overcast,290,2012-12-29 20:32:00
3:56 PM,44.1,39.9,85,29.58,10.0,WNW,19.6,25.3,N/A,,Overcast,290,2012-12-29 20:56:00
4:40 PM,44.6,39.2,81,29.59,10.0,WNW,12.7,20.7,N/A,,Mostly Cloudy,290,2012-12-29 21:40:00
4:56 PM,43.0,39.0,86,29.60,10.0,West,11.5,-,N/A,,Scattered Clouds,270,2012-12-29 21:56:00
5:56 PM,43.0,37.9,82,29.64,10.0,West,9.2,-,N/A,,Clear,270,2012-12-29 22:56:00
6:56 PM,43.0,37.9,82,29.67,10.0,West,9.2,-,N/A,,Clear,260,2012-12-29 23:56:00
7:56 PM,41.0,37.9,89,29.69,10.0,WSW,6.9,-,N/A,,Clear,240,2012-12-30 00:56:00
8:56 PM,44.1,34.0,68,29.71,10.0,West,13.8,-,N/A,,Partly Cloudy,280,2012-12-30 01:56:00
9:56 PM,43.0,32.0,65,29.75,10.0,West,13.8,-,N/A,,Scattered Clouds,280,2012-12-30 02:56:00
10:56 PM,43.0,32.0,65,29.79,10.0,WNW,11.5,-,N/A,,Mostly Cloudy,290,2012-12-30 03:56:00
11:56 PM,41.0,32.0,70,29.82,10.0,WNW,10.4,-,N/A,,Scattered Clouds,300,2012-12-30 04:56:00